CES5230 ZBAD-ZYCC

Flight info

Callsign CES5230
Flight time 1h 33m
Altitude 37100
Route DOTRA6K DOTRA B334 TGO G341 BUTET BUTET4A
Aircraft A346/H-SDE2E3FGHIJ3J4J5M1RWXY/LB1D1

Departure

Time 2026-04-26 08:33
Airport Beijing Daxing International Airport (ZBAD)

Arrival

Time 2026-04-26 10:07
Airport Changchun Longjia International Airport (ZYCC)
Time Latitude Longitude Altitude Speed Heading
2026-04-26 07:45 39.51615 116.41894 99 ft 0 kts 262°
2026-04-26 08:18 39.51615 116.41898 99 ft 2 kts 262°
2026-04-26 08:18 39.51617 116.41917 99 ft 2 kts 262°
2026-04-26 08:18 39.51619 116.41936 99 ft 2 kts 268°
2026-04-26 08:19 39.51617 116.41955 99 ft 2 kts 297°
2026-04-26 08:19 39.51608 116.41970 99 ft 2 kts 319°
2026-04-26 08:19 39.51596 116.41980 99 ft 2 kts 341°
2026-04-26 08:19 39.51588 116.41982 99 ft 1 kts 353°
2026-04-26 08:20 39.51585 116.41983 99 ft 0 kts 353°
2026-04-26 08:22 39.51619 116.41994 99 ft 10 kts 27°
2026-04-26 08:22 39.51642 116.42064 99 ft 9 kts 101°
2026-04-26 08:23 39.51617 116.42158 99 ft 12 kts 107°
2026-04-26 08:23 39.51559 116.42230 99 ft 12 kts 164°
2026-04-26 08:23 39.51477 116.42248 99 ft 12 kts 171°
2026-04-26 08:23 39.51432 116.42306 99 ft 8 kts 80°
2026-04-26 08:24 39.51443 116.42384 99 ft 10 kts 87°
2026-04-26 08:24 39.51447 116.42497 99 ft 14 kts 87°
2026-04-26 08:24 39.51457 116.42634 99 ft 16 kts 83°
2026-04-26 08:24 39.51471 116.42795 99 ft 18 kts 83°
2026-04-26 08:25 39.51484 116.42931 99 ft 13 kts 83°
2026-04-26 08:25 39.51490 116.42991 99 ft 0 kts 81°
2026-04-26 08:27 39.51491 116.42996 99 ft 5 kts 81°
2026-04-26 08:27 39.51532 116.43079 99 ft 12 kts 31°
2026-04-26 08:27 39.51551 116.43092 99 ft 0 kts 24°
2026-04-26 08:30 39.51590 116.43121 99 ft 12 kts 37°
2026-04-26 08:30 39.51641 116.43218 99 ft 14 kts 80°
2026-04-26 08:30 39.51637 116.43295 99 ft 3 kts 100°
2026-04-26 08:31 39.51637 116.43296 99 ft 0 kts 100°
2026-04-26 08:32 39.51625 116.43365 99 ft 36 kts 103°
2026-04-26 08:33 39.51500 116.44054 100 ft 117 kts 103°
2026-04-26 08:33 39.51259 116.45358 148 ft 175 kts 104°
2026-04-26 08:33 39.50993 116.46894 830 ft 180 kts 104°
2026-04-26 08:33 39.50744 116.48461 1673 ft 180 kts 104°
2026-04-26 08:34 39.50461 116.50009 2463 ft 186 kts 105°
2026-04-26 08:34 39.50139 116.51716 3065 ft 204 kts 105°
2026-04-26 08:34 39.49796 116.53561 3644 ft 222 kts 104°
2026-04-26 08:34 39.49427 116.55589 4206 ft 245 kts 104°
2026-04-26 08:35 39.49026 116.57815 4710 ft 260 kts 104°
2026-04-26 08:35 39.48612 116.60107 4928 ft 264 kts 103°
2026-04-26 08:35 39.48224 116.62438 4929 ft 265 kts 96°
2026-04-26 08:35 39.48418 116.64779 4927 ft 267 kts 70°
2026-04-26 08:36 39.49267 116.66909 4942 ft 268 kts 60°
2026-04-26 08:36 39.50230 116.68996 4940 ft 268 kts 60°
2026-04-26 08:36 39.51175 116.71054 4939 ft 268 kts 60°
2026-04-26 08:36 39.52120 116.73140 4939 ft 268 kts 60°
2026-04-26 08:37 39.53054 116.75221 4938 ft 268 kts 60°
2026-04-26 08:37 39.53980 116.77294 4938 ft 268 kts 60°
2026-04-26 08:37 39.54882 116.79429 4948 ft 270 kts 64°
2026-04-26 08:37 39.55732 116.81654 5409 ft 283 kts 64°
2026-04-26 08:38 39.56583 116.83905 6616 ft 280 kts 64°
2026-04-26 08:38 39.57425 116.86138 7788 ft 279 kts 64°
2026-04-26 08:38 39.58269 116.88374 8770 ft 284 kts 64°
2026-04-26 08:38 39.59133 116.90662 9719 ft 289 kts 64°
2026-04-26 08:39 39.60020 116.93015 10605 ft 296 kts 64°
2026-04-26 08:39 39.60942 116.95461 11186 ft 313 kts 63°
2026-04-26 08:39 39.61937 116.98077 11704 ft 331 kts 60°
2026-04-26 08:39 39.63353 117.00446 12143 ft 347 kts 40°
2026-04-26 08:40 39.65441 117.02133 12595 ft 362 kts 20°
2026-04-26 08:40 39.67960 117.02821 13040 ft 376 kts 359°
2026-04-26 08:40 39.70561 117.02486 13756 ft 383 kts 350°
2026-04-26 08:40 39.73230 117.02052 14668 ft 386 kts 350°
2026-04-26 08:41 39.75906 117.01644 15527 ft 391 kts 350°
2026-04-26 08:41 39.78593 117.01237 16350 ft 396 kts 350°
2026-04-26 08:41 39.81335 117.00823 17176 ft 400 kts 350°
2026-04-26 08:41 39.84112 117.00405 17973 ft 405 kts 350°
2026-04-26 08:42 39.86916 116.99983 18739 ft 410 kts 350°
2026-04-26 08:42 39.89762 116.99555 19492 ft 415 kts 350°
2026-04-26 08:42 39.92661 116.99119 20232 ft 419 kts 349°
2026-04-26 08:42 39.95551 116.98682 20941 ft 423 kts 349°
2026-04-26 08:43 39.98505 116.98238 21640 ft 428 kts 349°
2026-04-26 08:43 40.01454 116.97794 22336 ft 432 kts 349°
2026-04-26 08:43 40.04429 116.97345 23024 ft 436 kts 349°
2026-04-26 08:43 40.07458 116.96887 23699 ft 439 kts 349°
2026-04-26 08:44 40.10524 116.96423 24372 ft 443 kts 349°
2026-04-26 08:44 40.13577 116.95962 25036 ft 446 kts 349°
2026-04-26 08:44 40.16670 116.95493 25684 ft 449 kts 349°
2026-04-26 08:44 40.19750 116.95027 26312 ft 452 kts 349°
2026-04-26 08:45 40.22894 116.94550 26914 ft 455 kts 349°
2026-04-26 08:45 40.26052 116.94072 27473 ft 459 kts 348°
2026-04-26 08:45 40.29208 116.93593 28004 ft 463 kts 348°
2026-04-26 08:45 40.32422 116.93103 28527 ft 466 kts 348°
2026-04-26 08:46 40.35631 116.92615 29258 ft 465 kts 348°
2026-04-26 08:46 40.38861 116.92124 30094 ft 462 kts 348°
2026-04-26 08:46 40.42012 116.91644 30871 ft 459 kts 347°
2026-04-26 08:46 40.45205 116.91106 31603 ft 456 kts 345°
2026-04-26 08:47 40.48306 116.90384 32271 ft 452 kts 342°
2026-04-26 08:47 40.51353 116.89462 32944 ft 448 kts 339°
2026-04-26 08:47 40.54357 116.88377 33612 ft 444 kts 338°
2026-04-26 08:47 40.57323 116.87252 34263 ft 442 kts 337°
2026-04-26 08:48 40.60248 116.86129 34889 ft 439 kts 337°
2026-04-26 08:48 40.63176 116.85006 35508 ft 437 kts 337°
2026-04-26 08:48 40.66102 116.83888 36103 ft 434 kts 337°
2026-04-26 08:48 40.69011 116.82866 36642 ft 435 kts 339°
2026-04-26 08:49 40.71979 116.82027 37123 ft 436 kts 342°
2026-04-26 08:49 40.74985 116.81379 37517 ft 438 kts 345°
2026-04-26 08:49 40.77998 116.80935 37821 ft 443 kts 348°
2026-04-26 08:49 40.81101 116.80689 38115 ft 448 kts 351°
2026-04-26 08:50 40.84238 116.80657 38403 ft 453 kts 354°
2026-04-26 08:50 40.87443 116.80784 38681 ft 455 kts 354°
2026-04-26 08:50 40.90520 116.80943 38934 ft 457 kts 355°
2026-04-26 08:50 40.93721 116.81117 39046 ft 459 kts 355°
2026-04-26 08:51 41.03282 116.81633 39058 ft 459 kts 355°
2026-04-26 08:52 41.09653 116.81970 39058 ft 458 kts 355°
2026-04-26 08:52 41.16022 116.82305 39058 ft 458 kts 355°
2026-04-26 08:53 41.22436 116.82643 39057 ft 458 kts 355°
2026-04-26 08:53 41.28790 116.82978 39057 ft 458 kts 355°
2026-04-26 08:54 41.35170 116.83315 39057 ft 458 kts 355°
2026-04-26 08:54 41.41542 116.83652 39058 ft 459 kts 355°
2026-04-26 08:55 41.47912 116.83990 39059 ft 459 kts 355°
2026-04-26 08:55 41.54369 116.84332 39059 ft 459 kts 355°
2026-04-26 08:56 41.60791 116.84876 39056 ft 467 kts
2026-04-26 08:56 41.67010 116.87725 39058 ft 488 kts 21°
2026-04-26 08:56 41.69915 116.90256 39057 ft 498 kts 32°
2026-04-26 08:57 41.72468 116.93422 39056 ft 508 kts 42°
2026-04-26 08:57 41.74603 116.97170 39056 ft 517 kts 53°
2026-04-26 08:57 41.76313 117.01473 39062 ft 523 kts 60°
2026-04-26 08:58 41.79305 117.10284 39056 ft 522 kts 61°
2026-04-26 08:58 41.82284 117.19129 39055 ft 522 kts 60°
2026-04-26 08:59 41.85333 117.28037 39055 ft 522 kts 60°
2026-04-26 08:59 41.88376 117.36890 39056 ft 522 kts 60°
2026-04-26 09:00 41.91418 117.45760 39057 ft 522 kts 60°
2026-04-26 09:00 41.94435 117.54585 39056 ft 522 kts 60°
2026-04-26 09:01 41.97440 117.63406 39055 ft 522 kts 60°
2026-04-26 09:01 42.00454 117.72281 39050 ft 523 kts 61°
2026-04-26 09:02 42.03464 117.81180 39050 ft 523 kts 61°
2026-04-26 09:02 42.06460 117.90062 39049 ft 523 kts 61°
2026-04-26 09:03 42.09464 117.98979 39045 ft 523 kts 61°
2026-04-26 09:03 42.12466 118.07920 39043 ft 523 kts 61°
2026-04-26 09:04 42.15444 118.16830 39017 ft 523 kts 61°
2026-04-26 09:04 42.18439 118.25780 39011 ft 523 kts 60°
2026-04-26 09:05 42.21655 118.34689 39053 ft 522 kts 59°
2026-04-26 09:05 42.24844 118.43419 39069 ft 521 kts 59°
2026-04-26 09:06 42.28020 118.52165 39061 ft 520 kts 59°
2026-04-26 09:06 42.31189 118.60942 39058 ft 519 kts 59°
2026-04-26 09:07 42.34336 118.69694 39056 ft 519 kts 60°
2026-04-26 09:07 42.37500 118.78520 39058 ft 519 kts 60°
2026-04-26 09:08 42.40575 118.87126 39060 ft 519 kts 60°
2026-04-26 09:08 42.43705 118.95915 39062 ft 519 kts 60°
2026-04-26 09:09 42.46845 119.04757 39063 ft 519 kts 60°
2026-04-26 09:09 42.49944 119.13510 39063 ft 519 kts 60°
2026-04-26 09:10 42.53050 119.22311 39064 ft 519 kts 60°
2026-04-26 09:10 42.56138 119.31087 39067 ft 519 kts 60°
2026-04-26 09:11 42.59235 119.39916 39071 ft 519 kts 60°
2026-04-26 09:11 42.62336 119.48783 39071 ft 519 kts 60°
2026-04-26 09:12 42.65451 119.57726 39072 ft 519 kts 60°
2026-04-26 09:12 42.68538 119.66609 39071 ft 519 kts 61°
2026-04-26 09:13 42.71611 119.75482 39075 ft 520 kts 61°
2026-04-26 09:13 42.74684 119.84385 39077 ft 520 kts 62°
2026-04-26 09:14 42.77750 119.93305 39079 ft 520 kts 62°
2026-04-26 09:14 42.80804 120.02220 39082 ft 520 kts 62°
2026-04-26 09:15 42.83858 120.11157 39088 ft 520 kts 62°
2026-04-26 09:15 42.86904 120.20100 39089 ft 520 kts 62°
2026-04-26 09:16 42.89890 120.28897 39085 ft 520 kts 62°
2026-04-26 09:16 42.92911 120.37830 39083 ft 519 kts 62°
2026-04-26 09:17 42.95931 120.46790 39084 ft 519 kts 62°
2026-04-26 09:17 42.99015 120.55658 39084 ft 518 kts 60°
2026-04-26 09:18 43.02219 120.64551 39084 ft 518 kts 60°
2026-04-26 09:18 43.05400 120.73431 39083 ft 518 kts 61°
2026-04-26 09:19 43.08537 120.82259 39084 ft 518 kts 61°
2026-04-26 09:19 43.11659 120.91086 39084 ft 518 kts 61°
2026-04-26 09:20 43.14780 120.99944 39084 ft 518 kts 61°
2026-04-26 09:20 43.17920 121.08877 39084 ft 518 kts 61°
2026-04-26 09:21 43.21020 121.17725 39085 ft 518 kts 61°
2026-04-26 09:21 43.24127 121.26630 39085 ft 517 kts 61°
2026-04-26 09:22 43.27239 121.35569 39085 ft 517 kts 61°
2026-04-26 09:22 43.30338 121.44496 39085 ft 518 kts 61°
2026-04-26 09:23 43.33400 121.53361 39085 ft 518 kts 61°
2026-04-26 09:23 43.36484 121.62325 39085 ft 518 kts 61°
2026-04-26 09:24 43.39545 121.71243 39084 ft 518 kts 62°
2026-04-26 09:24 43.42598 121.80167 39086 ft 517 kts 62°
2026-04-26 09:25 43.45662 121.89153 39087 ft 517 kts 62°
2026-04-26 09:25 43.48703 121.98102 39088 ft 517 kts 61°
2026-04-26 09:26 43.51742 122.07090 39093 ft 518 kts 62°
2026-04-26 09:26 43.54304 122.16300 39095 ft 521 kts 70°
2026-04-26 09:27 43.56072 122.26015 39090 ft 524 kts 77°
2026-04-26 09:27 43.56985 122.36011 39088 ft 526 kts 84°
2026-04-26 09:28 43.57525 122.46046 39088 ft 526 kts 84°
2026-04-26 09:28 43.58062 122.56113 39088 ft 526 kts 84°
2026-04-26 09:29 43.58612 122.66170 39088 ft 525 kts 84°
2026-04-26 09:29 43.59153 122.76052 39089 ft 526 kts 84°
2026-04-26 09:30 43.59697 122.86183 39089 ft 526 kts 84°
2026-04-26 09:30 43.60227 122.96217 39089 ft 526 kts 85°
2026-04-26 09:31 43.60749 123.06265 39080 ft 526 kts 85°
2026-04-26 09:31 43.61007 123.11304 38856 ft 525 kts 85°
2026-04-26 09:31 43.61261 123.16313 38612 ft 523 kts 85°
2026-04-26 09:31 43.61517 123.21283 38367 ft 520 kts 84°
2026-04-26 09:32 43.61821 123.26251 38121 ft 517 kts 83°
2026-04-26 09:32 43.62144 123.31139 37877 ft 515 kts 83°
2026-04-26 09:32 43.62472 123.36057 37631 ft 514 kts 83°
2026-04-26 09:32 43.62793 123.40918 37387 ft 515 kts 83°
2026-04-26 09:33 43.63110 123.45824 37141 ft 514 kts 83°
2026-04-26 09:33 43.63422 123.50733 36894 ft 514 kts 84°
2026-04-26 09:33 43.63731 123.55645 36648 ft 514 kts 84°
2026-04-26 09:33 43.64034 123.60516 36401 ft 514 kts 84°
2026-04-26 09:34 43.64335 123.65403 36151 ft 514 kts 84°
2026-04-26 09:34 43.64638 123.70336 35819 ft 514 kts 84°
2026-04-26 09:34 43.64936 123.75241 35394 ft 514 kts 84°
2026-04-26 09:34 43.65232 123.80148 34848 ft 515 kts 85°
2026-04-26 09:35 43.65524 123.85023 34232 ft 516 kts 85°
2026-04-26 09:35 43.65817 123.89944 33581 ft 517 kts 85°
2026-04-26 09:35 43.66110 123.94903 32907 ft 519 kts 85°
2026-04-26 09:35 43.66402 123.99868 32215 ft 521 kts 85°
2026-04-26 09:36 43.66690 124.04830 31509 ft 522 kts 85°
2026-04-26 09:36 43.66977 124.09789 30786 ft 524 kts 85°
2026-04-26 09:36 43.67263 124.14795 30034 ft 526 kts 85°
2026-04-26 09:36 43.67545 124.19769 29251 ft 528 kts 85°
2026-04-26 09:37 43.67782 124.24849 28404 ft 530 kts 89°
2026-04-26 09:37 43.67502 124.29858 27628 ft 529 kts 100°
2026-04-26 09:37 43.66605 124.34733 27096 ft 521 kts 110°
2026-04-26 09:37 43.65266 124.39281 26602 ft 514 kts 115°
2026-04-26 09:38 43.63820 124.43743 26109 ft 508 kts 115°
2026-04-26 09:38 43.62728 124.48363 25619 ft 505 kts 103°
2026-04-26 09:38 43.62275 124.53127 25154 ft 500 kts 92°
2026-04-26 09:38 43.62391 124.57883 24702 ft 494 kts 84°
2026-04-26 09:39 43.62716 124.62533 24249 ft 489 kts 82°
2026-04-26 09:39 43.63067 124.67149 23790 ft 484 kts 83°
2026-04-26 09:39 43.63386 124.71722 23333 ft 480 kts 83°
2026-04-26 09:39 43.63673 124.76272 22878 ft 476 kts 84°
2026-04-26 09:40 43.63944 124.80823 22421 ft 471 kts 84°
2026-04-26 09:40 43.64205 124.85310 21968 ft 467 kts 84°
2026-04-26 09:40 43.64462 124.89737 21518 ft 463 kts 84°
2026-04-26 09:40 43.64715 124.94129 21069 ft 460 kts 84°
2026-04-26 09:41 43.64970 124.98699 20593 ft 456 kts 84°
2026-04-26 09:41 43.65212 125.02976 20141 ft 452 kts 84°
2026-04-26 09:41 43.65460 125.07323 19679 ft 448 kts 84°
2026-04-26 09:41 43.65700 125.11543 19223 ft 445 kts 84°
2026-04-26 09:42 43.65941 125.15819 18760 ft 442 kts 84°
2026-04-26 09:42 43.66175 125.20013 18304 ft 440 kts 84°
2026-04-26 09:42 43.66406 125.24198 17848 ft 437 kts 84°
2026-04-26 09:42 43.66630 125.28303 17395 ft 434 kts 84°
2026-04-26 09:43 43.66858 125.32470 16966 ft 430 kts 83°
2026-04-26 09:43 43.67387 125.36478 16631 ft 418 kts 69°
2026-04-26 09:43 43.68577 125.40004 16224 ft 407 kts 54°
2026-04-26 09:43 43.70304 125.43057 15842 ft 397 kts 44°
2026-04-26 09:44 43.72123 125.45849 15478 ft 390 kts 43°
2026-04-26 09:44 43.73935 125.48611 15101 ft 384 kts 44°
2026-04-26 09:44 43.75683 125.51334 14757 ft 379 kts 44°
2026-04-26 09:44 43.77405 125.54058 14373 ft 373 kts 45°
2026-04-26 09:45 43.79079 125.56725 13716 ft 360 kts 45°
2026-04-26 09:45 43.80679 125.59296 13170 ft 346 kts 45°
2026-04-26 09:45 43.82199 125.61736 12725 ft 332 kts 45°
2026-04-26 09:45 43.83678 125.64111 12434 ft 314 kts 45°
2026-04-26 09:46 43.85071 125.66343 12211 ft 307 kts 45°
2026-04-26 09:46 43.86298 125.68742 11918 ft 307 kts 67°
2026-04-26 09:46 43.86577 125.71624 11631 ft 305 kts 100°
2026-04-26 09:46 43.85755 125.74258 11351 ft 294 kts 134°
2026-04-26 09:47 43.84134 125.75797 11077 ft 278 kts 169°
2026-04-26 09:47 43.82282 125.75906 10820 ft 261 kts 197°
2026-04-26 09:47 43.80653 125.75006 10582 ft 248 kts 218°
2026-04-26 09:47 43.79431 125.73422 10348 ft 238 kts 236°
2026-04-26 09:48 43.78445 125.71641 10114 ft 234 kts 236°
2026-04-26 09:48 43.77544 125.69808 9880 ft 225 kts 253°
2026-04-26 09:48 43.77333 125.67701 9754 ft 223 kts 278°
2026-04-26 09:48 43.77766 125.65657 9631 ft 224 kts 299°
2026-04-26 09:49 43.78746 125.63983 9506 ft 226 kts 320°
2026-04-26 09:49 43.80151 125.62967 9377 ft 231 kts 346°
2026-04-26 09:49 43.81766 125.63058 9250 ft 239 kts 17°
2026-04-26 09:49 43.83229 125.64148 9136 ft 242 kts 34°
2026-04-26 09:50 43.84511 125.65678 9013 ft 243 kts 41°
2026-04-26 09:50 43.85675 125.67357 8890 ft 243 kts 45°
2026-04-26 09:50 43.86801 125.69109 8765 ft 243 kts 46°
2026-04-26 09:50 43.87900 125.70868 8641 ft 242 kts 46°
2026-04-26 09:51 43.88998 125.72638 8517 ft 241 kts 46°
2026-04-26 09:51 43.90083 125.74390 8391 ft 240 kts 46°
2026-04-26 09:51 43.91174 125.76145 8267 ft 240 kts 46°
2026-04-26 09:51 43.92250 125.77876 8144 ft 239 kts 46°
2026-04-26 09:52 43.93338 125.79623 8019 ft 238 kts 46°
2026-04-26 09:52 43.95492 125.83104 7770 ft 237 kts 46°
2026-04-26 09:52 43.96571 125.84846 7646 ft 237 kts 46°
2026-04-26 09:53 43.97644 125.86576 7521 ft 236 kts 47°
2026-04-26 09:53 43.98706 125.88294 7398 ft 236 kts 46°
2026-04-26 09:53 43.99783 125.90044 7273 ft 236 kts 47°
2026-04-26 09:53 44.00844 125.91759 7146 ft 235 kts 46°
2026-04-26 09:54 44.01904 125.93477 7022 ft 235 kts 46°
2026-04-26 09:54 44.02969 125.95203 6896 ft 234 kts 46°
2026-04-26 09:54 44.04034 125.96926 6771 ft 234 kts 46°
2026-04-26 09:54 44.05064 125.98593 6646 ft 233 kts 46°
2026-04-26 09:55 44.06110 126.00286 6524 ft 233 kts 46°
2026-04-26 09:55 44.07169 126.02007 6400 ft 232 kts 46°
2026-04-26 09:55 44.08214 126.03709 6273 ft 232 kts 46°
2026-04-26 09:55 44.09254 126.05396 6148 ft 231 kts 46°
2026-04-26 09:56 44.10297 126.07091 6023 ft 231 kts 46°
2026-04-26 09:56 44.11346 126.08807 5898 ft 230 kts 46°
2026-04-26 09:56 44.12373 126.10483 5775 ft 230 kts 46°
2026-04-26 09:56 44.13414 126.12173 5651 ft 229 kts 46°
2026-04-26 09:57 44.14520 126.13748 5513 ft 225 kts 27°
2026-04-26 09:57 44.15998 126.14298 5383 ft 218 kts 352°
2026-04-26 09:57 44.17395 126.13649 5259 ft 212 kts 323°
2026-04-26 09:57 44.18492 126.12373 5142 ft 203 kts 317°
2026-04-26 09:58 44.19550 126.11076 5018 ft 203 kts 318°
2026-04-26 09:58 44.20618 126.09776 4896 ft 202 kts 319°
2026-04-26 09:58 44.21616 126.08503 4789 ft 186 kts 307°
2026-04-26 09:58 44.21974 126.06887 4628 ft 177 kts 266°
2026-04-26 09:59 44.21671 126.05225 4519 ft 178 kts 251°
2026-04-26 09:59 44.21105 126.03690 4397 ft 180 kts 241°
2026-04-26 09:59 44.20398 126.02291 4254 ft 169 kts 237°
2026-04-26 09:59 44.19719 126.01051 4103 ft 156 kts 236°
2026-04-26 10:00 44.19052 125.99870 3975 ft 154 kts 235°
2026-04-26 10:00 44.18378 125.98712 3956 ft 154 kts 234°
2026-04-26 10:00 44.17700 125.97572 3930 ft 154 kts 233°
2026-04-26 10:00 44.17001 125.96423 3826 ft 154 kts 233°
2026-04-26 10:01 44.16303 125.95290 3728 ft 154 kts 233°
2026-04-26 10:01 44.15605 125.94158 3635 ft 154 kts 233°
2026-04-26 10:01 44.14908 125.93037 3551 ft 154 kts 233°
2026-04-26 10:01 44.14206 125.91913 3473 ft 154 kts 233°
2026-04-26 10:02 44.13501 125.90788 3395 ft 153 kts 233°
2026-04-26 10:02 44.12799 125.89666 3300 ft 154 kts 232°
2026-04-26 10:02 44.12096 125.88551 3227 ft 153 kts 233°
2026-04-26 10:02 44.11395 125.87433 3240 ft 153 kts 232°
2026-04-26 10:03 44.10701 125.86324 3249 ft 153 kts 232°
2026-04-26 10:03 44.09999 125.85206 3227 ft 153 kts 232°
2026-04-26 10:03 44.09295 125.84081 3197 ft 153 kts 233°
2026-04-26 10:03 44.08595 125.82955 3026 ft 153 kts 233°
2026-04-26 10:04 44.07909 125.81850 2823 ft 152 kts 233°
2026-04-26 10:04 44.07220 125.80737 2620 ft 152 kts 233°
2026-04-26 10:04 44.06525 125.79617 2414 ft 151 kts 234°
2026-04-26 10:04 44.05835 125.78503 2213 ft 151 kts 233°
2026-04-26 10:05 44.05156 125.77410 2016 ft 150 kts 233°
2026-04-26 10:05 44.04471 125.76311 1817 ft 149 kts 233°
2026-04-26 10:05 44.03789 125.75215 1619 ft 149 kts 233°
2026-04-26 10:05 44.03113 125.74129 1423 ft 148 kts 232°
2026-04-26 10:06 44.02446 125.73054 1229 ft 147 kts 232°
2026-04-26 10:06 44.01798 125.71988 1018 ft 146 kts 233°
2026-04-26 10:06 44.01123 125.70879 817 ft 145 kts 230°
2026-04-26 10:06 44.00446 125.69817 664 ft 143 kts 231°
2026-04-26 10:07 43.99953 125.69026 668 ft 59 kts 233°
2026-04-26 10:07 43.99871 125.68881 675 ft 0 kts 228°
2026-04-26 10:07 43.99827 125.68815 677 ft 12 kts 227°
2026-04-26 10:07 43.99765 125.68722 679 ft 13 kts 227°
2026-04-26 10:08 43.99703 125.68627 684 ft 12 kts 228°
2026-04-26 10:08 43.99627 125.68505 691 ft 20 kts 229°
2026-04-26 10:08 43.99529 125.68401 697 ft 14 kts 204°
2026-04-26 10:08 43.99438 125.68422 696 ft 12 kts 136°
2026-04-26 10:09 43.99421 125.68525 692 ft 13 kts 64°
2026-04-26 10:09 43.99492 125.68650 687 ft 19 kts 49°
2026-04-26 10:09 43.99584 125.68795 680 ft 20 kts 48°
2026-04-26 10:09 43.99685 125.68954 675 ft 22 kts 49°
2026-04-26 10:10 43.99782 125.69111 669 ft 22 kts 50°
2026-04-26 10:10 43.99893 125.69290 664 ft 26 kts 49°
2026-04-26 10:10 44.00027 125.69498 657 ft 27 kts 49°
2026-04-26 10:10 44.00114 125.69660 654 ft 17 kts 83°
2026-04-26 10:11 44.00076 125.69728 654 ft 5 kts 160°
2026-04-26 10:11 44.00053 125.69750 654 ft 3 kts 136°
2026-04-26 10:11 44.00009 125.69814 654 ft 11 kts 133°
2026-04-26 10:11 43.99959 125.69885 653 ft 9 kts 138°
2026-04-26 10:12 43.99910 125.69945 652 ft 9 kts 139°
2026-04-26 10:12 43.99863 125.70002 651 ft 8 kts 139°
2026-04-26 10:12 43.99819 125.70055 651 ft 7 kts 139°
2026-04-26 10:12 43.99781 125.70084 651 ft 4 kts 177°
2026-04-26 10:13 43.99752 125.70068 651 ft 4 kts 220°
2026-04-26 10:13 43.99731 125.70039 651 ft 4 kts 224°
2026-04-26 10:13 43.99704 125.70011 651 ft 4 kts 213°
2026-04-26 10:13 43.99677 125.69991 651 ft 3 kts 207°
2026-04-26 10:14 43.99658 125.69977 651 ft 2 kts 204°
2026-04-26 10:14 43.99595 125.69972 651 ft 8 kts 156°
2026-04-26 10:14 43.99564 125.70001 651 ft 2 kts 159°
2026-04-26 10:14 43.99545 125.70000 651 ft 2 kts 198°
2026-04-26 10:15 43.99533 125.69992 651 ft 1 kts 216°
2026-04-26 10:15 43.99526 125.69981 651 ft 0 kts 224°
2026-04-26 10:15 43.99521 125.69977 651 ft 2 kts 216°
2026-04-26 10:15 43.99512 125.69966 652 ft 0 kts 226°
2026-04-26 10:16 43.99510 125.69963 652 ft 0 kts 229°
2026-04-26 10:16 43.99508 125.69960 652 ft 0 kts 229°
2026-04-26 10:16 43.99506 125.69955 652 ft 0 kts 226°
2026-04-26 10:16 43.99505 125.69955 652 ft 0 kts 223°
2026-04-26 10:17 43.99504 125.69953 652 ft 0 kts 229°
2026-04-26 10:17 43.99499 125.69945 652 ft 5 kts 230°
2026-04-26 10:17 43.99494 125.69938 652 ft 0 kts 230°